Flag for USA

Past Weather in Dover, Delaware, USA — Yesterday and Last 2 Weeks

Now
85 °F

Sunny.


Feels Like: 90 °F
Forecast: 84 / 71 °F
Wind: 10 mph from Southeast

Location: Dover Air Force Base

Current Time: Jul 4, 2020 at 3:51:13 pm

Latest Report: Jul 4, 2020 at 2:56 pm


Visibility: 10 mi

Pressure: 29.93 "Hg

Humidity: 61%

Dew Point: 70 °F

Location of DoverLocation

Past Weather in Dover — Graph

°F

Dover Temperature Yesterday

Maximum temperature yesterday: 94 °F (at 2:56 pm)
Minimum temperature yesterday: 73 °F (at 5:56 am)
Average temperature yesterday: 84 °F

High & Low Weather Summary for the Past Weeks

 TemperatureHumidityPressure
High94 °F (Jul 3, 2:56 pm)100% (Jun 20, 10:20 pm)30.10 "Hg (Jun 20, 10:20 pm)
Low66 °F (Jun 20, 3:56 am)35% (Jun 24, 3:22 pm)29.66 "Hg (Jun 24, 1:56 am)
Average78 °F72%29.90 "Hg
* Reported Jun 19 1:56 pm — Jul 4 1:56 pm, Dover. Weather by CustomWeather, © 2020

Note: Actual official high and low records may vary slightly from our data, if they occured in-between our weather recording intervals... More about our weather records

Dover Weather History for the Previous 24 Hours

Scroll right to see more
 ConditionsComfort  
Time TempWeatherWind HumidityBarometerVisibility
1:56 pm
Sat, Jul 4
84 °FSunny.6 mph60%29.94 "Hg10 mi
12:56 pm82 °FPassing clouds.7 mph66%29.95 "Hg10 mi
12:26 pm82 °FScattered clouds.6 mph66%29.95 "Hg10 mi
12:06 pm81 °FPartly sunny.7 mph70%29.95 "Hg10 mi
11:56 am81 °FPartly sunny.No wind68%29.95 "Hg10 mi
11:06 am81 °FBroken clouds.8 mph70%29.94 "Hg10 mi
10:56 am81 °FBroken clouds.7 mph69%29.94 "Hg10 mi
10:36 am79 °FPartly sunny.6 mph74%29.93 "Hg10 mi
10:26 am79 °FMostly cloudy.7 mph74%29.93 "Hg10 mi
9:56 am79 °FBroken clouds.5 mph72%29.93 "Hg10 mi
9:06 am77 °FBroken clouds.7 mph83%29.93 "Hg10 mi
8:26 am75 °FMostly cloudy.7 mph89%29.93 "Hg10 mi
7:56 am75 °FOvercast.6 mph91%29.92 "Hg10 mi
7:16 am73 °FMore clouds than sun.9 mph94%29.91 "Hg10 mi
6:56 am74 °FMostly cloudy.8 mph94%29.91 "Hg10 mi
6:26 am73 °FOvercast.7 mph100%29.90 "Hg10 mi
6:07 am73 °FMostly cloudy.5 mph100%29.89 "Hg10 mi
5:56 am73 °FPartly sunny.9 mph99%29.89 "Hg10 mi
5:26 am73 °FPassing clouds.10 mph94%29.88 "Hg10 mi
4:56 am72 °FClear.6 mph100%29.87 "Hg10 mi
3:56 am73 °FPassing clouds.7 mph94%29.85 "Hg10 mi
2:56 am74 °FClear.5 mph93%29.84 "Hg10 mi
1:56 am75 °FPassing clouds.6 mph92%29.85 "Hg10 mi
1:06 am75 °FPassing clouds.3 mph94%29.86 "Hg10 mi
12:55 am75 °FLight rain. Passing clouds.5 mph94%29.87 "Hg10 mi
11:56 pm
Fri, Jul 3
77 °FPartly cloudy.16 mph82%29.87 "Hg10 mi
10:56 pm82 °FPassing clouds.10 mph64%29.85 "Hg10 mi
9:56 pm84 °FClear.5 mph59%29.83 "Hg10 mi
8:56 pm87 °FPassing clouds.5 mph51%29.81 "Hg10 mi
7:56 pm90 °FSunny.5 mph44%29.81 "Hg10 mi
6:56 pm92 °FPassing clouds.9 mph39%29.81 "Hg10 mi
5:56 pm92 °FSunny.8 mph39%29.81 "Hg10 mi
4:56 pm94 °FSunny.10 mph39%29.82 "Hg10 mi
3:56 pm93 °FSunny.8 mph42%29.84 "Hg10 mi
Weather by CustomWeather, © 2020

See weather overview